[[{"header":{"parameterUnit":"m.s-1","parameterCategory":1,"la1":30.2991,"la2":30.254,"lo1":-89.0895,"lo2":-89.0444,"dy":0.0017,"dx":0.0017,"nx":28,"ny":28,"refTime":"2023-03-27T15:00:00:Z","depth":0,"parameterNumber":2,"parameterNumberName":"U-component_of_WINDS"},"data":[0,0,0,0,0,0,0,0,0,0,0,0,0,0,0,0,0,0,0,0,0,0,0,0,0,0,0,0,0,0,0,0,0,0,0,0,0,0,0,0,0,0,0,0,0,0,0,0,0,0,0,0,0,0,0,0,0,0,0.0706,0.0705,0,0.0684,0.0683,0.0683,0.0665,0.0665,0.0664,0.0664,0.0642,0.0642,0.0641,0,0,0,0,0,0,0,0,0,0,0,0,0,0.0733,0.0732,0.0706,0.0705,0.0705,0.0684,0.0683,0.0683,0.0665,0.0665,0.0664,0.0664,0.0642,0.0642,0.0641,0,0,0,0,0,0,0,0,0,0,0,0,0,0.0717,0.0732,0.0706,0.0693,0.0692,0.0684,0.0683,0.0683,0.0665,0.0665,0.0664,0.0664,0.0642,0.0642,0.0641,0.0643,0,0,0.0639,0.0639,0,0,0,0,0,0,0,0,0.0718,0.0716,0.0696,0.0694,0.0693,0.0677,0.0685,0.067,0.0665,0.0675,0.0664,0.0664,0.0654,0.0652,0.0649,0.0642,0.0641,0.0639,0.0639,0.0638,0.0638,0,0,0,0,0,0,0,0.0719,0.0717,0.0697,0.0695,0.0694,0.0689,0.0687,0.0682,0.0666,0.0674,0.0673,0.0671,0.0653,0.0649,0.0648,0.0641,0.0639,0.0639,0.0638,0.0638,0.0635,0.0636,0,0,0,0,0,0,0.0722,0.0718,0.0698,0.0696,0.0705,0.0689,0.0686,0.0682,0.0666,0.0664,0.0671,0.067,0.0651,0.0649,0.0647,0.0649,0.0638,0.0638,0.0638,0.0635,0.0635,0.0636,0,0,0,0,0,0,0.0722,0.072,0.0699,0.0707,0.0704,0.0689,0.0685,0.0682,0.0678,0.0664,0.0661,0.067,0.065,0.0648,0.0644,0.0648,0.0638,0.0637,0.0635,0.0635,0.0636,0.0652,0,0,0,0,0,0,0.0723,0.072,0.0721,0.0707,0.0703,0.0696,0.0685,0.0682,0.0677,0.0676,0.0662,0.066,0.065,0.0645,0.0644,0.0647,0.0637,0.0634,0.0635,0.0635,0.0651,0.0653,0.0655,0,0,0,0,0,0.0724,0.0726,0.0721,0.0719,0.0703,0.0696,0.0694,0.0683,0.0678,0.0678,0.0669,0.066,0.0648,0.0645,0.0643,0.0646,0.0634,0.0635,0.0635,0.065,0.0653,0.0655,0,0,0,0,0,0,0.0741,0.0724,0.0718,0.0716,0.0708,0.0693,0.0693,0.0685,0.0679,0.0677,0.0663,0.0661,0.0659,0.0652,0.0649,0.0648,0.064,0.064,0.0652,0.0654,0.0656,0.0657,0.0636,0,0,0,0,0,0.0745,0.074,0.0726,0.0725,0.0721,0.0708,0.0704,0.0696,0.0687,0.0684,0.0674,0.0666,0.066,0.0657,0.0651,0.065,0.0647,0.0651,0.0653,0.0655,0.0655,0.0655,0.0657,0.0638,0.0638,0.0638,0,0,0.0752,0.0742,0.074,0.0728,0.0721,0.0717,0.0705,0.0701,0.0698,0.0683,0.0679,0.0672,0.0662,0.066,0.0659,0.0654,0.066,0.0655,0.0657,0.0656,0.0656,0.0657,0.0659,0.0638,0.0638,0.0638,0,0,0.0763,0.0755,0.0754,0.0747,0.0736,0.0727,0.0727,0.0714,0.0708,0.0704,0.0693,0.0689,0.0679,0.0673,0.0668,0.0677,0.0669,0.0676,0.0685,0.0685,0.0686,0.0687,0.0691,0.0692,0.0676,0.0676,0.0676,0,0.0773,0.0766,0.0754,0.0751,0.0746,0.0733,0.0731,0.0725,0.0713,0.071,0.0706,0.0693,0.0686,0.0682,0.0684,0.0681,0.0681,0.0677,0.0687,0.0688,0.0689,0.0692,0.0694,0.0677,0.0677,0.0677,0.0677,0,0.0779,0.0775,0.0775,0.0764,0.0759,0.0757,0.0745,0.0742,0.0734,0.0726,0.0722,0.0712,0.0704,0.0703,0.0695,0.0699,0.0696,0.069,0.0681,0.0692,0.0695,0.0696,0.0678,0.0678,0.0678,0.0678,0,0,0.08,0.0782,0.0783,0.0778,0.0765,0.0761,0.0759,0.0751,0.0749,0.0741,0.0738,0.0731,0.0725,0.0719,0.0711,0.0711,0.0719,0.0704,0.0704,0.0708,0.0723,0.0728,0.073,0.0714,0.0714,0.0714,0.0724,0,0.0809,0.0803,0.0793,0.0791,0.0787,0.0774,0.0772,0.0764,0.0757,0.0752,0.0744,0.0739,0.0731,0.0728,0.0727,0.0719,0.0722,0.0718,0.0712,0.0712,0.0715,0.0731,0.0736,0.0746,0.0725,0.0725,0.0725,0,0.0818,0.0812,0.0809,0.0798,0.0795,0.0794,0.0786,0.0782,0.0773,0.0767,0.0762,0.0753,0.075,0.0743,0.0738,0.0735,0.0732,0.0728,0.0728,0.0727,0.0719,0.0731,0.0748,0.075,0.0726,0.0726,0.0726,0,0.0834,0.0824,0.0822,0.0818,0.0804,0.0803,0.0797,0.0788,0.0784,0.0777,0.0775,0.0768,0.0764,0.0759,0.0748,0.0744,0.0746,0.0737,0.0741,0.0742,0.0742,0.0742,0.076,0.074,0.074,0.074,0.074,0,0.0845,0.0844,0.0829,0.0827,0.0826,0.0814,0.0813,0.0806,0.0798,0.0795,0.0784,0.0782,0.0768,0.0764,0.0756,0.0754,0.0752,0.0748,0.0746,0.0749,0.0749,0.0747,0.0746,0.074,0.074,0.074,0.074,0,0.0862,0.0852,0.0848,0.0835,0.0832,0.0832,0.0821,0.0819,0.0812,0.0808,0.0807,0.0794,0.0789,0.0778,0.077,0.0764,0.0764,0.076,0.0767,0.0766,0.0771,0.0771,0.0787,0.0789,0.0768,0.0769,0.0769,0,0.087,0.0869,0.0857,0.0854,0.0849,0.0844,0.084,0.0829,0.0825,0.0815,0.0815,0.0809,0.0803,0.0796,0.0786,0.078,0.0776,0.0782,0.0775,0.0778,0.0776,0.0776,0.0776,0.0784,0.0784,0.0784,0.0784,0,0.0885,0.088,0.0875,0.0868,0.0864,0.0858,0.0852,0.085,0.0837,0.0834,0.0828,0.0824,0.0816,0.081,0.0803,0.0797,0.0789,0.0787,0.0787,0.0791,0.0795,0.0793,0.0772,0.0786,0.0786,0.0786,0.0786,0.0786,0.0898,0.0897,0.0888,0.0883,0.0877,0.0871,0.0869,0.0861,0.0856,0.0849,0.0842,0.0838,0.0829,0.0818,0.0813,0.0809,0.0805,0.0806,0.0806,0.0807,0.0808,0.0796,0.0808,0.0808,0.0808,0.0808,0.0808,0,0.0912,0.0906,0.0902,0.0893,0.0889,0.0882,0.0875,0.0872,0.0868,0.0861,0.0856,0.085,0.0845,0.0835,0.0829,0.0828,0.0824,0.0827,0.0827,0.0825,0.0812,0.0812,0.083,0.083,0.083,0.083,0.083,0.083,0.0919,0.0917,0.0911,0.0906,0.09,0.0896,0.0892,0.0887,0.0882,0.0876,0.0871,0.0865,0.0857,0.085,0.0845,0.0842,0.084,0.0844,0.084,0.0828,0.0826,0.0824,0.0824,0.0844,0.0844,0.0854,0.0854,0.0854]},{"header":{"parameterUnit":"m.s-1","parameterCategory":1,"la1":30.2991,"la2":30.254,"lo1":-89.0895,"lo2":-89.0444,"dy":0.0017,"dx":0.0017,"nx":28,"ny":28,"refTime":"2023-03-27T15:00:00:Z","depth":0,"parameterNumber":3,"parameterNumberName":"V-component_of_WINDS"},"data":[0,0,0,0,0,0,0,0,0,0,0,0,0,0,0,0,0,0,0,0,0,0,0,0,0,0,0,0,0,0,0,0,0,0,0,0,0,0,0,0,0,0,0,0,0,0,0,0,0,0,0,0,0,0,0,0,0,0,5.2759,5.2761,0,5.2905,5.2907,5.2908,5.2921,5.2919,5.2917,5.2916,5.3063,5.3068,5.3074,0,0,0,0,0,0,0,0,0,0,0,0,0,5.249,5.2495,5.2759,5.2761,5.2762,5.2905,5.2907,5.2909,5.2921,5.2919,5.2917,5.2915,5.3062,5.3068,5.3074,0,0,0,0,0,0,0,0,0,0,0,0,0,5.2619,5.2497,5.2758,5.2786,5.279,5.2904,5.2907,5.2909,5.2921,5.2919,5.2916,5.2914,5.3059,5.3067,5.3075,5.3172,0,0,5.31,5.3103,0,0,0,0,0,0,0,0,5.2611,5.2628,5.278,5.2784,5.2789,5.2892,5.2866,5.2997,5.2922,5.2871,5.2916,5.2913,5.3008,5.302,5.3053,5.3179,5.3185,5.3101,5.3105,5.3109,5.3111,0,0,0,0,0,0,0,5.2602,5.2622,5.2817,5.2782,5.2787,5.2791,5.2806,5.2891,5.2951,5.2875,5.2877,5.2894,5.301,5.3045,5.3056,5.3187,5.31,5.3107,5.3112,5.3116,5.3403,5.3406,0,0,0,0,0,0,5.2588,5.2615,5.2812,5.2821,5.2692,5.2797,5.2815,5.2861,5.295,5.2961,5.2896,5.2894,5.3032,5.3047,5.3061,5.3183,5.3109,5.3116,5.3121,5.34,5.3404,5.3407,0,0,0,0,0,0,5.2583,5.2606,5.2806,5.2718,5.2744,5.2804,5.2857,5.2865,5.29,5.2965,5.2976,5.292,5.3031,5.305,5.3145,5.3188,5.312,5.3127,5.3397,5.3401,5.3405,5.3425,0,0,0,0,0,0,5.2575,5.2604,5.2641,5.2719,5.2749,5.2887,5.2859,5.287,5.2914,5.2913,5.2991,5.3002,5.3031,5.3133,5.3153,5.3198,5.3134,5.3393,5.3399,5.3404,5.3421,5.3429,5.3436,0,0,0,0,0,5.2565,5.264,5.2643,5.2667,5.2797,5.289,5.2907,5.2939,5.2918,5.2956,5.2998,5.3,5.318,5.3143,5.3165,5.3213,5.3391,5.3397,5.3403,5.3417,5.3427,5.3436,0,0,0,0,0,0,5.2564,5.265,5.2655,5.2757,5.2816,5.2892,5.2941,5.2948,5.3014,5.301,5.3046,5.3064,5.3158,5.3195,5.3152,5.3313,5.3283,5.3294,5.3286,5.3296,5.3304,5.3294,5.314,0,0,0,0,0,5.2575,5.2644,5.2716,5.2799,5.2829,5.288,5.2921,5.2941,5.3004,5.3029,5.3078,5.3138,5.3209,5.3254,5.3322,5.3426,5.3444,5.347,5.3478,5.3484,5.3494,5.3554,5.3567,5.3427,5.3427,5.3427,0,0,5.26,5.2656,5.2697,5.28,5.2849,5.292,5.2901,5.2976,5.3029,5.304,5.3134,5.3172,5.3241,5.3342,5.3388,5.3375,5.3536,5.3492,5.3496,5.3503,5.3561,5.3575,5.3586,5.3432,5.3431,5.343,0,0,5.2681,5.273,5.2806,5.2855,5.2929,5.2963,5.2981,5.3057,5.3083,5.3178,5.3188,5.3252,5.3372,5.3422,5.3463,5.3566,5.3571,5.3587,5.3629,5.3687,5.3698,5.3708,5.3747,5.376,5.3596,5.3596,5.3596,0,5.2702,5.281,5.2843,5.292,5.2966,5.298,5.3058,5.3104,5.3196,5.3227,5.3211,5.3364,5.3412,5.3526,5.3551,5.3583,5.3606,5.3579,5.3694,5.3704,5.3714,5.3751,5.3766,5.3598,5.3598,5.3598,5.3597,0,5.2834,5.2908,5.296,5.3051,5.3103,5.3179,5.3224,5.3273,5.3288,5.3324,5.3421,5.3479,5.3561,5.3589,5.3604,5.3706,5.3696,5.3686,5.3657,5.3728,5.3764,5.3779,5.36,5.36,5.3599,5.3599,0,0,5.2917,5.3027,5.3046,5.3089,5.3172,5.3231,5.3308,5.3389,5.3431,5.3494,5.3561,5.3663,5.3656,5.3703,5.3724,5.3775,5.3856,5.376,5.3762,5.3777,5.3974,5.3982,5.3998,5.3859,5.3862,5.3864,5.3969,0,5.301,5.315,5.3183,5.3302,5.3373,5.3389,5.3456,5.3515,5.3551,5.3616,5.3655,5.3728,5.3712,5.3741,5.3792,5.3835,5.3896,5.3828,5.3922,5.3925,5.3906,5.4016,5.4024,5.4121,5.3983,5.3985,5.3987,0,5.3136,5.3205,5.3332,5.3409,5.344,5.35,5.3579,5.364,5.3708,5.373,5.3784,5.38,5.3882,5.3849,5.3963,5.3916,5.3957,5.3984,5.3989,5.4,5.3961,5.4032,5.4152,5.4167,5.4009,5.4007,5.4006,0,5.3188,5.3311,5.3404,5.3439,5.3531,5.3574,5.3613,5.3679,5.3726,5.3794,5.3826,5.3902,5.3944,5.4003,5.404,5.4012,5.4153,5.4121,5.4175,5.4174,5.4204,5.4202,5.4334,5.4228,5.4227,5.4227,5.4227,0,5.3288,5.3366,5.3429,5.3486,5.3574,5.3612,5.3698,5.3738,5.3796,5.3862,5.3879,5.394,5.3985,5.4052,5.4082,5.4173,5.4191,5.4213,5.422,5.4213,5.421,5.4241,5.4236,5.4231,5.423,5.4229,5.4229,0,5.3361,5.3406,5.3508,5.3587,5.3609,5.3671,5.3739,5.3795,5.3832,5.3915,5.3936,5.3994,5.4075,5.4118,5.4218,5.4238,5.4341,5.4343,5.4319,5.4322,5.4374,5.437,5.4532,5.4556,5.4431,5.4432,5.4433,0,5.3423,5.3483,5.357,5.3616,5.3657,5.373,5.378,5.3819,5.387,5.3953,5.4,5.4082,5.415,5.4278,5.4329,5.4406,5.4412,5.4463,5.4423,5.4415,5.4415,5.4412,5.4419,5.447,5.4472,5.4473,5.4473,0,5.3529,5.3549,5.362,5.3699,5.3758,5.3822,5.3885,5.3922,5.3972,5.4028,5.4112,5.4164,5.4268,5.435,5.4432,5.4473,5.4483,5.4486,5.4502,5.4496,5.448,5.4492,5.434,5.4482,5.4481,5.448,5.448,5.448,5.36,5.3655,5.3726,5.3805,5.3857,5.3916,5.3974,5.4019,5.409,5.4179,5.4197,5.4286,5.4354,5.4466,5.4509,5.458,5.4569,5.4593,5.4599,5.4605,5.4609,5.4468,5.4594,5.4594,5.4594,5.4594,5.4594,0,5.3709,5.3755,5.3828,5.3917,5.398,5.3984,5.4054,5.4107,5.4185,5.4248,5.4315,5.4413,5.4493,5.455,5.4632,5.4678,5.4684,5.4698,5.4696,5.4706,5.4612,5.4591,5.4691,5.4691,5.4691,5.4691,5.4691,5.4691,5.3773,5.3868,5.3897,5.4019,5.4065,5.4153,5.4194,5.4249,5.43,5.4408,5.4476,5.4513,5.4575,5.4662,5.4736,5.4751,5.4781,5.4795,5.481,5.4722,5.4712,5.4702,5.4682,5.48,5.48,5.4898,5.4899,5.49]}]]